Hourly Data Report for October 24, 2014

All times are specified in Local Standard Time (LST). Add 1 hour to adjust for Daylight Saving Time where and when it is observed.

KUGAARUK CLIMATE
NUNAVUT

68°32'15.060" N
89°47'47.020" W
15.80 m
2303094
71407
NBB

Download Data

Hourly Data (October 2014)
Hourly Data Report for October 24, 2014
Temp Definition
°C
Dew Point Temp Definition
°C
Rel Hum Definition
%
Wind Dir Definition
10's deg

Wind Spd Definition
km/h
Visibility Definition
km
Stn Press Definition
kPa
Hmdx Definition


Wind Chill Definition


Weather Definition


TIME
00:00 -20.7 -22.9 82 25 11   102.63   -28 LegendNANA
01:00 -21.4 -23.6 83 25 18   102.66   -32 LegendNANA
02:00 -22.8 -25.3 80 26 11   102.64   -31 LegendNANA
03:00 -22.5 -24.8 81 25 12   102.61   -31 LegendNANA
04:00 -22.8 -25.3 80 22 8   102.61   -30 LegendNANA
05:00 -24.8 -27.8 76 32 1   102.56   -26 LegendNANA
06:00 -27.1 -30.2 75 6 3   102.56   -30 LegendNANA
07:00 -26.4 -29.1 78 7 9   102.50   -34 LegendNANA
08:00 -25.6 -28.4 77 9 11   102.50   -34 LegendNANA
09:00 -25.3 -28.1 77 8 9   102.47   -33 LegendNANA
10:00 -25.4 -28.1 78 9 7   102.43   -32 LegendNANA
11:00 -23.8 -26.5 78 9 8   102.41   -31 LegendNANA
12:00 -22.2 -24.8 79 6 18   102.34   -33 LegendNANA
13:00 -19.9 -22.3 81 4 16   102.29   -29 LegendNANA
14:00 -16.8 -18.6 86 5 15   102.24   -25 LegendNANA
15:00 -17.7 -19.4 86 6 20   102.24   -28 LegendNANA
16:00 -17.7 -19.7 84 7 26   102.22   -29 LegendNANA
17:00 -16.6 -18.4 86 7 20   102.26   -26 LegendNANA
18:00 -16.3 -18.1 86 5 17   102.20   -25 LegendNANA
19:00 -16.0 -18.0 85 7 20   102.17   -25 LegendNANA
20:00 -18.7 -20.6 85 5 17   102.14   -28 LegendNANA
21:00 -18.0 -19.9 85 3 17   102.11   -27 LegendNANA
22:00 -17.0 -18.9 85 5 16   102.07   -26 LegendNANA
23:00 -15.8 -17.7 86 8 19   102.04   -25 LegendNANA

Notes on Data Quality.

Legend

  • E = Estimated
  • M = Missing
  • NA = Not Available
  • ‡ = Partner data that is not subject to review by the National Climate Archives
Date modified: